Home   Weather   Ribeirão Prêto   Past weeks
Flag for Brazil

Past Weather in Ribeirão Prêto, São Paulo, Brazil — Yesterday and Last 2 Weeks

Now
77 °F

Passing clouds.


Feels Like: 79 °F
Forecast: 85 / 68 °F
Wind: 10 mph from East

Location: Leite Lopes / Ribeir

Current Time: Mar 28, 2020 at 9:41:01 am

Latest Report: Mar 28, 2020 at 9:00 am


Visibility: N/A

Pressure: 30.07 "Hg (28.24 "Hg at 549m altitude)

Humidity: 69%

Dew Point: 66 °F

Location of Ribeirão PrêtoLocation

Past Weather in Ribeirão Prêto — Graph

°F

Ribeirão Prêto Temperature Yesterday

Maximum temperature yesterday: 86 °F (at 1:00 pm)
Minimum temperature yesterday: 63 °F (at 5:00 am)
Average temperature yesterday: 75 °F

High & Low Weather Summary for the Past Weeks

 TemperatureHumidityPressure
High93 °F (Mar 13, 3:00 pm)100% (Mar 20, 4:00 am)30.09 "Hg (Mar 20, 4:00 am)
Low61 °F (Mar 25, 5:00 am)28% (Mar 13, 4:00 pm)29.74 "Hg (Mar 20, 4:00 pm)
Average77 °F67%29.96 "Hg
* Reported Mar 13 8:00 am — Mar 28 8:00 am, Ribeirão Prêto. Weather by CustomWeather, © 2020

Note: Actual official high and low records may vary slightly from our data, if they occured in-between our weather recording intervals... More about our weather records

Ribeirão Prêto Weather History for the Previous 24 Hours

Scroll right to see more
 ConditionsComfort  
Time TempWeatherWind HumidityBarometerVisibility
8:00 am
Sat, Mar 28
73 °FScattered clouds.6 mph74%30.04 "HgN/A
7:00 am70 °FScattered clouds.7 mph83%30.04 "HgN/A
6:00 am68 °FClear.8 mph88%30.01 "Hg10 mi
5:00 am70 °FPassing clouds.3 mph83%29.98 "HgN/A
4:00 am72 °FClear.6 mph78%29.98 "Hg10 mi
3:00 am72 °FClear.6 mph78%29.98 "Hg10 mi
2:00 am72 °FClear.3 mph78%29.98 "Hg10 mi
1:00 am73 °FClear.3 mph74%30.01 "Hg10 mi
12:00 am75 °FClear.3 mph69%30.01 "Hg10 mi
11:00 pm
Fri, Mar 27
75 °FClear.No wind65%30.01 "Hg10 mi
10:00 pm75 °FClear.No wind65%29.98 "Hg10 mi
9:00 pm75 °FClear.5 mph65%29.95 "Hg10 mi
8:00 pm79 °FClear.6 mph54%29.92 "Hg10 mi
7:00 pm82 °FPassing clouds.9 mph48%29.92 "HgN/A
6:00 pm84 °FSunny.7 mph43%29.92 "Hg10 mi
5:00 pm86 °FScattered clouds.8 mph35%29.89 "HgN/A
4:00 pm86 °FScattered clouds.6 mph38%29.89 "HgN/A
3:00 pm86 °FPartly sunny.7 mph35%29.92 "HgN/A
2:00 pm86 °FPartly sunny.6 mph40%29.92 "HgN/A
1:00 pm86 °FScattered clouds.8 mph43%29.95 "HgN/A
12:00 pm84 °FPassing clouds.6 mph45%29.98 "HgN/A
11:00 am81 °FSunny.8 mph51%30.01 "Hg10 mi
10:00 am77 °FSunny.10 mph57%30.04 "Hg10 mi
9:00 am73 °FSunny.10 mph65%30.01 "Hg10 mi
Weather by CustomWeather, © 2020

See weather overview

Advertising